Location: Carrer del Canonge
(41.4901°N, 2.2931°E)
Time: 14:10:12
(UTC+00:00)

Cosmos 494 Rocket - Pass Details

Date: 18 September 2020
Orbit: 741 x 771 km, 74.1° (Epoch: 29 October)

Event Time Altitude Azimuth Distance (km) Brightness Sun altitude
Rises 19:58:16 0° 344° (NNW) 3,243 7.8 -23.3°
Reaches altitude 10° 20:00:42 10° 349° (N) 2,316 6.9 -23.7°
Enters shadow 20:05:38 54° 57° (ENE) 932 4.2 -24.5°
